Simultaneous Nadir Overpasses (SNOs) Predictions

Prediction of SNOs between NOAA-19 and NPP Satellite Orbit:

Table of predicted SNOs for the next 14.0 days since TLE Epoch: 9/15/2013
Index Date (NOAA-19) Time (NOAA-19) Lat,Lon (NOAA-19) SZA (NOAA-19 ) Date (NPP) Time (NPP) Lat,Lon (NPP) SZA (NPP ) Distance(km) Time Diff (sec)
1 09/22/2013 09:22:52 -80.42, 132.13 90.97 09/22/2013 09:24:08 -80.79, 131.22 90.84 43.86 76
2 09/22/2013 10:12:25 80.95, -25.99 84.12 09/22/2013 10:13:20 80.95, -26.12 84.11 2.21 55
3 09/22/2013 11:03:23 -80.96, 140.94 95.82 09/22/2013 11:04:05 -80.95, 141.08 95.86 2.53 42
4 09/22/2013 11:54:28 80.93, -51.01 84.08 09/22/2013 11:54:49 80.93, -51.14 84.09 2.36 21
5 09/22/2013 12:45:26 -80.94, 115.92 95.87 09/22/2013 12:45:34 -80.94, 116.06 95.89 2.37 8
6 09/22/2013 13:36:31 80.91, -76.03 84.03 09/22/2013 13:36:18 80.92, -76.17 84.06 2.50 13
7 09/22/2013 14:27:29 -80.93, 90.91 95.91 09/22/2013 14:27:03 -80.92, 91.03 95.91 2.22 26
8 09/22/2013 15:18:33 80.88,-100.69 83.94 09/22/2013 15:17:46 80.89,-100.84 83.98 2.65 47




NCC Satellite Simultaneous Nadir Overpasses (SNOs) Prediction Service
